[[{"header":{"parameterUnit":"m.s-1","parameterCategory":1,"la1":30.2991,"la2":30.254,"lo1":-89.0895,"lo2":-89.0444,"dy":0.0017,"dx":0.0017,"nx":28,"ny":28,"refTime":"2024-07-08T03:00:00:Z","depth":0,"parameterNumber":2,"parameterNumberName":"U-component_of_WINDS"},"data":[0,0,0,0,0,0,0,0,0,0,0,0,0,0,0,0,0,0,0,0,0,0,0,0,0,0,0,0,0,0,0,0,0,0,0,0,0,0,0,0,0,0,0,0,0,0,0,0,0,0,0,0,0,0,0,0,0,0,-3.9433,-3.9433,0,-3.9433,-3.9433,-3.9433,-3.9369,-3.9368,-3.9366,-3.9364,-3.9364,-3.9366,-3.9368,0,0,0,0,0,0,0,0,0,0,0,0,0,-3.938,-3.9382,-3.9433,-3.9433,-3.9433,-3.9433,-3.9433,-3.9433,-3.937,-3.9367,-3.9365,-3.9364,-3.9364,-3.9366,-3.9368,0,0,0,0,0,0,0,0,0,0,0,0,0,-3.9394,-3.9382,-3.9433,-3.9401,-3.9399,-3.9433,-3.9433,-3.9433,-3.937,-3.9367,-3.9365,-3.9363,-3.9363,-3.9366,-3.9368,-3.9433,0,0,-3.9375,-3.9376,0,0,0,0,0,0,0,0,-3.9393,-3.9396,-3.9406,-3.9404,-3.9401,-3.9399,-3.9414,-3.9433,-3.9371,-3.9381,-3.9364,-3.9361,-3.9378,-3.9379,-3.9384,-3.9433,-3.9433,-3.9375,-3.9377,-3.9378,-3.9378,0,0,0,0,0,0,0,-3.9393,-3.9396,-3.9433,-3.9406,-3.9403,-3.9388,-3.9387,-3.9418,-3.9393,-3.938,-3.9375,-3.9376,-3.9376,-3.9382,-3.9384,-3.9433,-3.9375,-3.9377,-3.9379,-3.938,-3.9535,-3.9538,0,0,0,0,0,0,-3.9396,-3.9395,-3.9433,-3.9433,-3.9391,-3.9391,-3.939,-3.9402,-3.9393,-3.9389,-3.9378,-3.9373,-3.9379,-3.9381,-3.9384,-3.9458,-3.9378,-3.938,-3.9381,-3.9532,-3.9536,-3.9539,0,0,0,0,0,0,-3.9395,-3.94,-3.9433,-3.9413,-3.9416,-3.9394,-3.9408,-3.9403,-3.9409,-3.9392,-3.9387,-3.9389,-3.9378,-3.938,-3.9421,-3.9457,-3.9381,-3.9383,-3.9529,-3.9533,-3.9537,-3.9608,0,0,0,0,0,0,-3.9394,-3.94,-3.9423,-3.9414,-3.9417,-3.947,-3.941,-3.9405,-3.9413,-3.9407,-3.9401,-3.9397,-3.9376,-3.9418,-3.9423,-3.9459,-3.9385,-3.9526,-3.9531,-3.9536,-3.9603,-3.9614,-3.9625,0,0,0,0,0,-3.9392,-3.9443,-3.9425,-3.943,-3.9446,-3.9472,-3.9474,-3.9448,-3.9417,-3.944,-3.943,-3.9397,-3.9453,-3.9423,-3.9428,-3.9465,-3.9523,-3.9529,-3.9535,-3.9598,-3.9612,-3.9624,0,0,0,0,0,0,-3.9457,-3.9441,-3.9421,-3.9471,-3.9473,-3.9461,-3.949,-3.9464,-3.9476,-3.9469,-3.9437,-3.9436,-3.9482,-3.9478,-3.9444,-3.9528,-3.9483,-3.949,-3.9528,-3.9542,-3.9552,-3.9551,-3.9387,0,0,0,0,0,-3.9478,-3.9499,-3.9485,-3.953,-3.9533,-3.9512,-3.9522,-3.9502,-3.9504,-3.9504,-3.9496,-3.9499,-3.9517,-3.953,-3.9546,-3.9603,-3.9601,-3.9632,-3.9643,-3.9652,-3.9658,-3.9688,-3.9701,-3.9559,-3.9559,-3.9558,0,0,-3.9519,-3.9514,-3.9529,-3.9543,-3.9543,-3.9567,-3.9513,-3.954,-3.9557,-3.9508,-3.9546,-3.9541,-3.9542,-3.9592,-3.9613,-3.959,-3.9697,-3.966,-3.9667,-3.9668,-3.9696,-3.9709,-3.9721,-3.9563,-3.9562,-3.9561,0,0,-3.9607,-3.9605,-3.9643,-3.9644,-3.9645,-3.9631,-3.964,-3.9633,-3.9627,-3.9665,-3.9629,-3.965,-3.9682,-3.9684,-3.969,-3.9782,-3.9753,-3.9789,-3.9844,-3.9874,-3.9885,-3.9895,-3.9927,-3.9939,-3.9795,-3.9796,-3.9796,0,-3.9658,-3.9692,-3.9665,-3.9695,-3.9702,-3.9661,-3.9699,-3.9702,-3.9708,-3.9714,-3.9689,-3.9729,-3.9727,-3.9776,-3.9799,-3.9805,-3.9815,-3.9787,-3.9886,-3.9896,-3.9904,-3.9934,-3.9946,-3.98,-3.9799,-3.9799,-3.9798,0,-3.9755,-3.9779,-3.981,-3.9817,-3.9828,-3.9862,-3.9841,-3.9856,-3.9837,-3.9826,-3.9866,-3.9863,-3.9877,-3.9888,-3.9869,-3.9935,-3.9921,-3.9892,-3.9844,-3.9922,-3.995,-3.9961,-3.9806,-3.9804,-3.9803,-3.9802,0,0,-3.9879,-3.9874,-3.9885,-3.9888,-3.9887,-3.9905,-3.9939,-3.9953,-3.9966,-3.9973,-4.0,-4.0029,-4.0003,-4.0009,-3.9991,-4.0017,-4.009,-3.9984,-3.9984,-4.0002,-4.0162,-4.0182,-4.0195,-4.0072,-4.0074,-4.0075,-4.0161,0,-3.9963,-4.0018,-3.9996,-4.0053,-4.0075,-4.0038,-4.0067,-4.007,-4.0062,-4.008,-4.0071,-4.0092,-4.0056,-4.0059,-4.0084,-4.0075,-4.0121,-4.0069,-4.0095,-4.0096,-4.0093,-4.021,-4.0231,-4.0311,-4.0172,-4.0173,-4.0175,0,-4.0066,-4.0078,-4.0137,-4.0133,-4.0142,-4.0168,-4.018,-4.0198,-4.0202,-4.0194,-4.0203,-4.0179,-4.0212,-4.0168,-4.0213,-4.0178,-4.0188,-4.0186,-4.0189,-4.0188,-4.0138,-4.021,-4.0337,-4.0348,-4.0192,-4.019,-4.0189,0,-4.015,-4.018,-4.0219,-4.0223,-4.022,-4.0239,-4.0239,-4.024,-4.0251,-4.0263,-4.0269,-4.0285,-4.0293,-4.0306,-4.0287,-4.0257,-4.0334,-4.0289,-4.0328,-4.0329,-4.0343,-4.0342,-4.0471,-4.0355,-4.0354,-4.0354,-4.0354,0,-4.0243,-4.028,-4.0256,-4.028,-4.0321,-4.0298,-4.0339,-4.0335,-4.0337,-4.0359,-4.0329,-4.0352,-4.0327,-4.0347,-4.0334,-4.0372,-4.0377,-4.0371,-4.0367,-4.0372,-4.0373,-4.0376,-4.0369,-4.0357,-4.0357,-4.0356,-4.0355,0,-4.0341,-4.0327,-4.0367,-4.0362,-4.0362,-4.0392,-4.0388,-4.041,-4.0401,-4.043,-4.0436,-4.0422,-4.0444,-4.0428,-4.0451,-4.0442,-4.0492,-4.0481,-4.049,-4.0486,-4.0526,-4.0522,-4.0659,-4.0676,-4.0551,-4.0552,-4.0553,0,-4.04,-4.0428,-4.0427,-4.044,-4.0442,-4.0464,-4.0475,-4.0454,-4.0467,-4.0474,-4.0495,-4.0516,-4.053,-4.0568,-4.056,-4.0577,-4.0564,-4.0612,-4.0567,-4.0572,-4.0563,-4.056,-4.0563,-4.062,-4.0621,-4.0622,-4.0623,0,-4.0507,-4.0499,-4.0516,-4.0531,-4.0545,-4.0556,-4.0565,-4.0577,-4.0557,-4.0573,-4.0595,-4.0607,-4.063,-4.065,-4.0665,-4.0665,-4.0641,-4.0639,-4.0648,-4.0653,-4.0656,-4.0653,-4.0513,-4.0634,-4.0633,-4.0632,-4.0632,-4.0631,-4.0586,-4.0609,-4.0612,-4.0632,-4.0637,-4.0646,-4.0666,-4.0661,-4.068,-4.0697,-4.0684,-4.0711,-4.0716,-4.0733,-4.0737,-4.0758,-4.0738,-4.0753,-4.0756,-4.0759,-4.0764,-4.0656,-4.0761,-4.076,-4.076,-4.076,-4.076,0,-4.0689,-4.069,-4.0709,-4.0722,-4.0738,-4.0716,-4.0725,-4.074,-4.0764,-4.077,-4.0786,-4.0812,-4.0833,-4.0827,-4.0845,-4.0863,-4.0853,-4.0869,-4.0866,-4.0866,-4.0781,-4.077,-4.0877,-4.0877,-4.0877,-4.0877,-4.0877,-4.0877,-4.0744,-4.0782,-4.0775,-4.0815,-4.0816,-4.0842,-4.0849,-4.0858,-4.0863,-4.0894,-4.091,-4.0907,-4.0909,-4.0928,-4.0945,-4.0943,-4.095,-4.097,-4.0964,-4.0884,-4.0872,-4.0861,-4.085,-4.0973,-4.0973,-4.1047,-4.1048,-4.1048]},{"header":{"parameterUnit":"m.s-1","parameterCategory":1,"la1":30.2991,"la2":30.254,"lo1":-89.0895,"lo2":-89.0444,"dy":0.0017,"dx":0.0017,"nx":28,"ny":28,"refTime":"2024-07-08T03:00:00:Z","depth":0,"parameterNumber":3,"parameterNumberName":"V-component_of_WINDS"},"data":[0,0,0,0,0,0,0,0,0,0,0,0,0,0,0,0,0,0,0,0,0,0,0,0,0,0,0,0,0,0,0,0,0,0,0,0,0,0,0,0,0,0,0,0,0,0,0,0,0,0,0,0,0,0,0,0,0,0,4.6116,4.6116,0,4.6107,4.6107,4.6106,4.6083,4.6082,4.6082,4.6081,4.6069,4.6069,4.6069,0,0,0,0,0,0,0,0,0,0,0,0,0,4.6112,4.6113,4.6116,4.6116,4.6116,4.6107,4.6107,4.6106,4.6083,4.6082,4.6082,4.6081,4.6069,4.6069,4.607,0,0,0,0,0,0,0,0,0,0,0,0,0,4.611,4.6113,4.6116,4.6103,4.6102,4.6107,4.6107,4.6106,4.6083,4.6082,4.6081,4.6081,4.6069,4.6069,4.607,4.6086,0,0,4.607,4.607,0,0,0,0,0,0,0,0,4.611,4.611,4.6105,4.6104,4.6103,4.6095,4.6101,4.6099,4.6083,4.609,4.6081,4.608,4.6078,4.6078,4.6077,4.6085,4.6085,4.607,4.607,4.607,4.607,0,0,0,0,0,0,0,4.611,4.611,4.6112,4.6105,4.6103,4.6097,4.6096,4.61,4.6088,4.6089,4.6088,4.6087,4.6077,4.6077,4.6077,4.6085,4.607,4.607,4.6071,4.6071,4.6107,4.6108,0,0,0,0,0,0,4.6112,4.611,4.6113,4.6112,4.6104,4.6098,4.6096,4.6098,4.6088,4.6086,4.6088,4.6086,4.6077,4.6077,4.6077,4.6097,4.607,4.6071,4.6071,4.6106,4.6107,4.6108,0,0,0,0,0,0,4.6112,4.6113,4.6113,4.6111,4.611,4.6099,4.6101,4.6098,4.6098,4.6087,4.6084,4.609,4.6077,4.6076,4.6084,4.6096,4.6071,4.6071,4.6105,4.6107,4.6108,4.6136,0,0,0,0,0,0,4.6112,4.6113,4.6119,4.6111,4.6111,4.6121,4.6101,4.6099,4.6099,4.6097,4.6088,4.6086,4.6076,4.6084,4.6085,4.6096,4.6071,4.6104,4.6106,4.6107,4.6134,4.6138,4.6142,0,0,0,0,0,4.6112,4.6127,4.612,4.612,4.6118,4.6122,4.6122,4.611,4.61,4.6106,4.6099,4.6087,4.6094,4.6085,4.6085,4.6097,4.6103,4.6105,4.6107,4.6133,4.6138,4.6142,0,0,0,0,0,0,4.6135,4.6125,4.6117,4.613,4.6127,4.6118,4.6126,4.6116,4.6115,4.6113,4.6098,4.6096,4.6107,4.6102,4.6092,4.6113,4.6097,4.6099,4.6116,4.6121,4.6125,4.6126,4.6071,0,0,0,0,0,4.6142,4.6147,4.6137,4.6149,4.6148,4.6137,4.6138,4.613,4.6126,4.6125,4.6118,4.6115,4.6117,4.6118,4.6119,4.6133,4.6132,4.6141,4.6145,4.6148,4.6151,4.616,4.6164,4.6114,4.6114,4.6114,0,0,4.6155,4.6151,4.6154,4.6153,4.615,4.6156,4.6136,4.6142,4.6146,4.6125,4.6134,4.6129,4.6124,4.6136,4.614,4.6132,4.6164,4.615,4.6153,4.6154,4.6162,4.6167,4.6171,4.6116,4.6116,4.6115,0,0,4.6183,4.6179,4.619,4.6188,4.6184,4.6177,4.6179,4.6172,4.6169,4.6177,4.6162,4.6166,4.6169,4.6167,4.6166,4.6194,4.6183,4.6195,4.6215,4.6224,4.6228,4.6232,4.6244,4.6248,4.6197,4.6197,4.6197,0,4.6201,4.6208,4.6196,4.6204,4.6205,4.6187,4.6198,4.6196,4.6192,4.6193,4.6184,4.6189,4.6184,4.6196,4.6203,4.6202,4.6206,4.6196,4.6229,4.6232,4.6235,4.6247,4.6251,4.6198,4.6198,4.6198,4.6198,0,4.6231,4.6236,4.6245,4.6244,4.6245,4.6254,4.6244,4.6246,4.6238,4.6232,4.6241,4.6235,4.6235,4.6237,4.6228,4.6248,4.6243,4.6231,4.6215,4.6242,4.6253,4.6257,4.6201,4.62,4.62,4.6199,0,0,4.6273,4.6266,4.627,4.627,4.6265,4.6269,4.6277,4.6279,4.6282,4.628,4.6288,4.6291,4.6281,4.628,4.627,4.6278,4.6304,4.6266,4.6265,4.6275,4.6328,4.6339,4.6345,4.6296,4.6297,4.6297,4.633,0,4.6302,4.6317,4.6307,4.6323,4.6329,4.6313,4.6321,4.6319,4.6313,4.6317,4.631,4.6314,4.6299,4.6299,4.6306,4.6299,4.6315,4.6297,4.6304,4.6304,4.6308,4.635,4.6361,4.6392,4.6334,4.6334,4.6335,0,4.6336,4.6338,4.6356,4.6352,4.6354,4.6361,4.6362,4.6366,4.6363,4.6359,4.6359,4.6348,4.6356,4.6339,4.6351,4.6339,4.6341,4.6338,4.6339,4.6341,4.6323,4.6355,4.6401,4.6407,4.6341,4.634,4.634,0,4.6369,4.6375,4.6387,4.6387,4.6382,4.6388,4.6385,4.6382,4.6384,4.6385,4.6386,4.6387,4.6389,4.639,4.638,4.6368,4.6393,4.6375,4.6391,4.6391,4.6399,4.6399,4.6448,4.6396,4.6396,4.6396,4.6396,0,4.6403,4.6415,4.6402,4.641,4.6423,4.6411,4.6424,4.642,4.6418,4.6425,4.6409,4.6416,4.6401,4.6406,4.6398,4.641,4.641,4.6407,4.6406,4.641,4.6411,4.6413,4.6411,4.6397,4.6397,4.6397,4.6397,0,4.6442,4.6433,4.6446,4.644,4.6439,4.645,4.6445,4.6452,4.6445,4.6454,4.6455,4.6445,4.6451,4.644,4.6444,4.6438,4.6456,4.645,4.6458,4.6457,4.6475,4.6474,4.6529,4.6536,4.6478,4.6478,4.6478,0,4.6465,4.6474,4.647,4.6474,4.6474,4.648,4.6482,4.647,4.6474,4.6472,4.648,4.6484,4.6487,4.6497,4.649,4.6493,4.6487,4.6506,4.6488,4.6493,4.6491,4.6491,4.6493,4.6511,4.6512,4.6512,4.6513,0,4.6508,4.6504,4.6509,4.6513,4.6517,4.6519,4.6519,4.6523,4.6511,4.6515,4.6522,4.6524,4.6529,4.6534,4.6535,4.6533,4.6521,4.6518,4.6523,4.6529,4.6534,4.6534,4.6471,4.6518,4.6517,4.6517,4.6516,4.6516,4.6541,4.655,4.6549,4.6555,4.6555,4.6557,4.6564,4.6559,4.6564,4.6568,4.656,4.6569,4.6567,4.6568,4.6567,4.6573,4.6565,4.657,4.6572,4.6574,4.6579,4.6531,4.6573,4.6573,4.6573,4.6572,4.6572,0,4.6586,4.6585,4.6591,4.6594,4.6599,4.6588,4.6588,4.6594,4.6602,4.6601,4.6605,4.6613,4.6618,4.6612,4.6616,4.6622,4.6618,4.6624,4.6625,4.6625,4.6584,4.6582,4.6628,4.6628,4.6628,4.6628,4.6628,4.6628,4.661,4.6625,4.6621,4.6635,4.6633,4.6643,4.6645,4.6646,4.6646,4.6656,4.6661,4.6657,4.6654,4.6658,4.6663,4.6661,4.6664,4.6673,4.667,4.6633,4.6627,4.6622,4.662,4.6673,4.6673,4.671,4.671,4.671]}]]